2024/03/09 00:00:00,40.0,-3.0
2024/03/09 00:10:00,39.9,-3.2
2024/03/09 00:20:00,39.9,-3.1
2024/03/09 00:30:00,40.0,-2.8
2024/03/09 00:40:00,40.0,-3.1
2024/03/09 00:50:00,40.0,-3.1
2024/03/09 01:00:00,40.0,-3.3
2024/03/09 01:10:00,40.0,-3.2
2024/03/09 01:20:00,41.0,-3.2
2024/03/09 01:30:00,41.1,-2.9
2024/03/09 01:40:00,41.2,-3.1
2024/03/09 01:50:00,41.1,-3.5
2024/03/09 02:00:00,41.1,-3.3
2024/03/09 02:10:00,41.8,-3.7
2024/03/09 02:20:00,42.3,-3.4
2024/03/09 02:30:00,43.3,-3.5
2024/03/09 02:40:00,44.0,-3.7
2024/03/09 02:50:00,44.5,-3.7
2024/03/09 03:00:00,45.0,-3.8
2024/03/09 03:10:00,45.5,-3.8
2024/03/09 03:20:00,46.0,-4.1
2024/03/09 03:30:00,46.1,-3.7
2024/03/09 03:40:00,46.9,-3.7
2024/03/09 03:50:00,47.1,-3.6
2024/03/09 04:00:00,47.6,-3.9
2024/03/09 04:10:00,48.4,-4.0
2024/03/09 04:20:00,49.0,-3.8
2024/03/09 04:30:00,49.4,-4.2
2024/03/09 04:40:00,49.9,-4.0
2024/03/09 04:50:00,50.0,-4.2
2024/03/09 05:00:00,50.2,-3.7
2024/03/09 05:10:00,50.4,-4.0
2024/03/09 05:20:00,50.6,-3.9
2024/03/09 05:30:00,50.7,-4.1
2024/03/09 05:40:00,51.3,-4.0
2024/03/09 05:50:00,51.4,-4.0
2024/03/09 06:00:00,51.9,-4.1
2024/03/09 06:10:00,52.2,-3.9
2024/03/09 06:20:00,52.5,-4.3
2024/03/09 06:30:00,52.3,-3.8
2024/03/09 06:40:00,52.1,-3.8
2024/03/09 06:50:00,52.4,-3.8
2024/03/09 07:00:00,52.6,-3.9
2024/03/09 07:10:00,52.9,-4.0
2024/03/09 07:20:00,53.8,-3.6
2024/03/09 07:30:00,54.3,-3.7
2024/03/09 07:40:00,54.2,-3.3
2024/03/09 07:50:00,54.2,-3.0
2024/03/09 08:00:00,54.8,-3.4
2024/03/09 08:10:00,55.6,-3.3
2024/03/09 08:20:00,56.4,-3.4
2024/03/09 08:30:00,57.3,-3.3
2024/03/09 08:40:00,57.6,-2.4
2024/03/09 08:50:00,57.5,-2.8
2024/03/09 09:00:00,57.4,-3.0
2024/03/09 09:10:00,57.0,-2.2
2024/03/09 09:20:00,57.5,-2.0
2024/03/09 09:30:00,57.3,-1.6
2024/03/09 09:40:00,58.2,-2.2
2024/03/09 09:50:00,59.3,-2.4
2024/03/09 10:00:00,59.6,-2.4
2024/03/09 10:10:00,59.8,-2.1
2024/03/09 10:20:00,59.9,-1.2
2024/03/09 10:30:00,60.3,-1.5
2024/03/09 10:40:00,60.6,-2.2
2024/03/09 10:50:00,61.2,-1.0
2024/03/09 11:00:00,61.2,-1.6
2024/03/09 11:10:00,61.9,-1.7
2024/03/09 11:20:00,62.2,-2.0
2024/03/09 11:30:00,62.5,-1.4
2024/03/09 11:40:00,62.3,-1.0
2024/03/09 11:50:00,62.4,-0.6
2024/03/09 12:00:00,62.4,-0.5
2024/03/09 12:10:00,62.4,-1.6
2024/03/09 12:20:00,63.3,-1.5
2024/03/09 12:30:00,63.4,-1.8
2024/03/09 12:40:00,64.5,-1.6
2024/03/09 12:50:00,65.2,-2.2
2024/03/09 13:00:00,65.7,-1.6
2024/03/09 13:10:00,65.7,-2.0
2024/03/09 13:20:00,66.0,-2.0
2024/03/09 13:30:00,66.0,-2.3
2024/03/09 13:40:00,65.6,-2.2
2024/03/09 13:50:00,66.0,-2.3
2024/03/09 14:00:00,66.0,-2.2
2024/03/09 14:10:00,66.3,-2.4
2024/03/09 14:20:00,66.6,-2.2
2024/03/09 14:30:00,66.3,-2.2
2024/03/09 14:40:00,66.3,-2.4
2024/03/09 14:50:00,66.3,-2.4
2024/03/09 15:00:00,66.2,-2.2
2024/03/09 15:10:00,66.1,-2.3
2024/03/09 15:20:00,65.6,-2.3
2024/03/09 15:30:00,65.5,-2.5
2024/03/09 15:40:00,65.7,-2.4
2024/03/09 15:50:00,65.9,-2.3
2024/03/09 16:00:00,65.6,-2.4
2024/03/09 16:10:00,65.7,-2.4
2024/03/09 16:20:00,65.3,-2.6
2024/03/09 16:30:00,64.8,-2.5
2024/03/09 16:40:00,64.7,-2.8
2024/03/09 16:50:00,64.5,-2.6
2024/03/09 17:00:00,64.5,-3.0
2024/03/09 17:10:00,64.5,-3.1
2024/03/09 17:20:00,64.4,-3.2
2024/03/09 17:30:00,64.4,-3.4
2024/03/09 17:40:00,64.1,-3.8
2024/03/09 17:50:00,64.3,-3.6
2024/03/09 18:00:00,64.3,-3.6
2024/03/09 18:10:00,64.3,-3.9
2024/03/09 18:20:00,64.5,-4.1
2024/03/09 18:30:00,64.3,-4.1
2024/03/09 18:40:00,64.4,-3.9
2024/03/09 18:50:00,64.3,-3.8
2024/03/09 19:00:00,64.3,-3.9
2024/03/09 19:10:00,64.1,-4.2
2024/03/09 19:20:00,63.9,-3.8
2024/03/09 19:30:00,63.8,-4.0
2024/03/09 19:40:00,63.6,-3.8
2024/03/09 19:50:00,63.6,-3.9
2024/03/09 20:00:00,63.6,-3.9
2024/03/09 20:10:00,63.7,-3.8
2024/03/09 20:20:00,64.0,-3.8
2024/03/09 20:30:00,63.9,-3.5
2024/03/09 20:40:00,63.6,-4.1
2024/03/09 20:50:00,63.4,-3.8
2024/03/09 21:00:00,63.3,-4.1
2024/03/09 21:10:00,63.1,-3.9
2024/03/09 21:20:00,62.8,-4.0
2024/03/09 21:30:00,63.1,-3.8
2024/03/09 21:40:00,62.9,-4.1
2024/03/09 21:50:00,62.6,-4.0
2024/03/09 22:00:00,62.7,-4.2
2024/03/09 22:10:00,63.3,-4.3
2024/03/09 22:20:00,63.7,-4.1
2024/03/09 22:30:00,63.3,-4.0
2024/03/09 22:40:00,62.6,-4.3
2024/03/09 22:50:00,62.5,-4.1
2024/03/09 23:00:00,62.7,-4.2
2024/03/09 23:10:00,62.4,-4.0
2024/03/09 23:20:00,63.4,-4.4
2024/03/09 23:30:00,63.4,-4.2
2024/03/09 23:40:00,63.3,-4.2
2024/03/09 23:50:00,63.0,-4.2
